Time,TemperatureF,DewpointF,PressureIn,WindDirection,WindDirectionDegrees,WindSpeedMPH,WindSpeedGustMPH,Humidity,HourlyPrecipIn,Conditions,Clouds,dailyrainin,SoftwareType,DateUTC
2013-04-18 00:04:00,76.4,69.0,29.50,SSW,192,7.0,28.0,79,0.00,,,0.00,weatherlink.com 1.10,2013-04-18 05:04:00,
2013-04-18 00:19:00,76.3,70.0,29.50,SSE,167,7.0,26.0,80,0.00,,,0.00,weatherlink.com 1.10,2013-04-18 05:19:00,
2013-04-18 00:34:00,76.3,69.0,29.50,SSE,165,9.0,29.0,79,0.00,,,0.00,weatherlink.com 1.10,2013-04-18 05:34:00,
2013-04-18 00:49:00,76.2,70.0,29.50,South,176,18.0,28.0,80,0.00,,,0.00,weatherlink.com 1.10,2013-04-18 05:49:00,
2013-04-18 01:04:00,76.2,70.0,29.50,SSE,159,8.0,33.0,80,0.00,,,0.00,weatherlink.com 1.10,2013-04-18 06:04:00,
2013-04-18 01:19:00,76.2,70.0,29.51,South,177,15.0,35.0,80,0.00,,,0.00,weatherlink.com 1.10,2013-04-18 06:19:00,
2013-04-18 01:34:00,76.3,70.0,29.52,South,184,12.0,26.0,80,0.00,,,0.00,weatherlink.com 1.10,2013-04-18 06:34:00,
2013-04-18 01:49:00,76.4,69.0,29.52,SW,218,10.0,31.0,79,0.00,,,0.00,weatherlink.com 1.10,2013-04-18 06:49:00,
2013-04-18 02:04:00,76.4,70.0,29.52,South,189,8.0,27.0,80,0.00,,,0.00,weatherlink.com 1.10,2013-04-18 07:04:00,
2013-04-18 02:19:00,76.3,70.0,29.51,South,169,10.0,24.0,80,0.00,,,0.00,weatherlink.com 1.10,2013-04-18 07:19:00,
2013-04-18 02:34:00,75.0,70.0,29.51,SW,214,23.0,23.0,83,0.04,,,0.04,weatherlink.com 1.10,2013-04-18 07:34:00,
2013-04-18 02:49:00,73.4,70.0,29.51,WSW,244,9.0,18.0,88,0.08,,,0.08,weatherlink.com 1.10,2013-04-18 07:49:00,
2013-04-18 03:04:00,51.5,48.0,29.56,NW,321,21.0,33.0,88,0.18,,,0.18,weatherlink.com 1.10,2013-04-18 08:04:00,
2013-04-18 03:19:00,49.2,46.0,29.62,NW,307,22.0,32.0,89,0.19,,,0.19,weatherlink.com 1.10,2013-04-18 08:19:00,
2013-04-18 03:35:00,48.2,45.0,29.64,WNW,284,21.0,27.0,89,0.15,,,0.19,weatherlink.com 1.10,2013-04-18 08:35:00,
2013-04-18 03:50:00,47.4,44.0,29.66,NW,315,12.0,33.0,89,0.11,,,0.19,weatherlink.com 1.10,2013-04-18 08:50:00,
2013-04-18 04:05:00,46.7,43.0,29.67,WNW,299,18.0,34.0,88,0.01,,,0.19,weatherlink.com 1.10,2013-04-18 09:05:00,
2013-04-18 04:20:00,46.0,43.0,29.67,NW,305,15.0,26.0,89,0.01,,,0.20,weatherlink.com 1.10,2013-04-18 09:20:00,
2013-04-18 04:35:00,45.6,43.0,29.67,NNW,348,15.0,25.0,89,0.01,,,0.20,weatherlink.com 1.10,2013-04-18 09:35:00,
2013-04-18 04:50:00,45.3,42.0,29.70,WNW,300,13.0,26.0,89,0.01,,,0.20,weatherlink.com 1.10,2013-04-18 09:50:00,
2013-04-18 05:05:00,45.2,42.0,29.69,NW,320,13.0,21.0,88,0.01,,,0.20,weatherlink.com 1.10,2013-04-18 10:05:00,
2013-04-18 05:20:00,45.1,42.0,29.69,NNW,334,14.0,27.0,87,0.00,,,0.20,weatherlink.com 1.10,2013-04-18 10:20:00,
2013-04-18 05:35:00,45.1,42.0,29.71,NW,310,13.0,23.0,87,0.00,,,0.20,weatherlink.com 1.10,2013-04-18 10:35:00,
2013-04-18 05:50:00,45.0,41.0,29.73,NW,316,14.0,29.0,86,0.00,,,0.20,weatherlink.com 1.10,2013-04-18 10:50:00,
2013-04-18 06:05:00,44.8,40.0,29.77,NW,306,16.0,31.0,84,0.00,,,0.20,weatherlink.com 1.10,2013-04-18 11:05:00,
2013-04-18 06:20:00,44.7,40.0,29.78,NNW,328,16.0,29.0,84,0.00,,,0.20,weatherlink.com 1.10,2013-04-18 11:20:00,
2013-04-18 06:35:00,44.5,40.0,29.79,NW,323,11.0,20.0,85,0.00,,,0.20,weatherlink.com 1.10,2013-04-18 11:35:00,
2013-04-18 06:50:00,43.9,39.0,29.81,NNW,333,15.0,29.0,83,0.00,,,0.20,weatherlink.com 1.10,2013-04-18 11:50:00,
2013-04-18 07:05:00,43.3,39.0,29.82,NW,304,17.0,24.0,83,0.00,,,0.20,weatherlink.com 1.10,2013-04-18 12:05:00,
2013-04-18 07:20:00,43.0,38.0,29.81,NW,320,21.0,26.0,83,0.00,,,0.20,weatherlink.com 1.10,2013-04-18 12:20:00,
2013-04-18 07:35:00,42.9,38.0,29.84,NW,322,21.0,27.0,82,0.00,,,0.20,weatherlink.com 1.10,2013-04-18 12:35:00,
2013-04-18 07:50:00,42.8,37.0,29.85,NW,313,13.0,26.0,81,0.00,,,0.20,weatherlink.com 1.10,2013-04-18 12:50:00,
2013-04-18 08:05:00,42.7,37.0,29.87,NW,323,20.0,27.0,80,0.00,,,0.20,weatherlink.com 1.10,2013-04-18 13:05:00,
2013-04-18 08:20:00,42.8,37.0,29.90,NW,315,9.0,20.0,81,0.00,,,0.20,weatherlink.com 1.10,2013-04-18 13:20:00,
2013-04-18 08:35:00,42.7,37.0,29.90,NNW,334,15.0,21.0,81,0.00,,,0.20,weatherlink.com 1.10,2013-04-18 13:35:00,
2013-04-18 08:51:00,42.6,37.0,29.90,NNW,336,12.0,26.0,80,0.00,,,0.20,weatherlink.com 1.10,2013-04-18 13:51:00,
2013-04-18 09:06:00,42.5,37.0,29.90,NW,325,12.0,21.0,80,0.00,,,0.20,weatherlink.com 1.10,2013-04-18 14:06:00,
2013-04-18 09:21:00,42.3,36.0,29.89,NW,321,18.0,26.0,79,0.00,,,0.20,weatherlink.com 1.10,2013-04-18 14:21:00,
2013-04-18 09:36:00,42.3,37.0,29.90,NNW,335,15.0,21.0,80,0.00,,,0.20,weatherlink.com 1.10,2013-04-18 14:36:00,
2013-04-18 09:51:00,42.3,36.0,29.88,NNW,335,20.0,26.0,79,0.00,,,0.20,weatherlink.com 1.10,2013-04-18 14:51:00,
2013-04-18 10:06:00,42.0,36.0,29.88,NW,306,13.0,30.0,78,0.00,,,0.20,weatherlink.com 1.10,2013-04-18 15:06:00,
2013-04-18 10:21:00,41.9,36.0,29.90,NW,325,22.0,26.0,78,0.00,,,0.20,weatherlink.com 1.10,2013-04-18 15:21:00,
2013-04-18 10:36:00,41.9,36.0,29.91,NW,316,14.0,27.0,78,0.00,,,0.20,weatherlink.com 1.10,2013-04-18 15:36:00,
2013-04-18 10:51:00,42.3,36.0,29.93,North,351,16.0,19.0,78,0.00,,,0.20,weatherlink.com 1.10,2013-04-18 15:51:00,
2013-04-18 11:06:00,42.6,35.0,29.92,NNW,337,20.0,27.0,75,0.00,,,0.20,weatherlink.com 1.10,2013-04-18 16:06:00,
2013-04-18 11:21:00,43.4,36.0,29.92,NNW,329,17.0,23.0,75,0.00,,,0.20,weatherlink.com 1.10,2013-04-18 16:21:00,
2013-04-18 11:36:00,44.2,35.0,29.92,NNW,328,15.0,25.0,71,0.00,,,0.20,weatherlink.com 1.10,2013-04-18 16:36:00,
2013-04-18 12:06:00,45.4,36.0,29.93,NW,313,10.0,27.0,70,0.00,,,0.20,weatherlink.com 1.10,2013-04-18 17:06:00,
2013-04-18 12:36:00,45.6,36.0,29.93,NW,309,20.0,25.0,69,0.00,,,0.20,weatherlink.com 1.10,2013-04-18 17:36:00,
2013-04-18 12:51:00,46.9,37.0,29.94,NNW,327,12.0,22.0,68,0.00,,,0.20,weatherlink.com 1.10,2013-04-18 17:51:00,
2013-04-18 13:06:00,46.2,36.0,29.94,NNW,333,13.0,25.0,67,0.00,,,0.20,weatherlink.com 1.10,2013-04-18 18:06:00,
2013-04-18 13:21:00,47.1,36.0,29.95,NW,310,12.0,26.0,66,0.00,,,0.20,weatherlink.com 1.10,2013-04-18 18:21:00,
2013-04-18 13:36:00,46.6,36.0,29.94,NNW,327,18.0,20.0,67,0.00,,,0.20,weatherlink.com 1.10,2013-04-18 18:36:00,
2013-04-18 13:51:00,47.8,37.0,29.94,NW,321,16.0,23.0,66,0.00,,,0.20,weatherlink.com 1.10,2013-04-18 18:51:00,
2013-04-18 14:21:00,48.9,36.0,29.94,NNW,331,16.0,26.0,61,0.00,,,0.20,weatherlink.com 1.10,2013-04-18 19:21:00,
2013-04-18 14:36:00,49.5,37.0,29.95,NNW,327,16.0,27.0,62,0.00,,,0.20,weatherlink.com 1.10,2013-04-18 19:36:00,
2013-04-18 14:51:00,49.7,36.0,29.95,NNW,339,16.0,23.0,60,0.00,,,0.20,weatherlink.com 1.10,2013-04-18 19:51:00,
2013-04-18 15:21:00,50.5,36.0,29.95,NNW,345,13.0,26.0,59,0.00,,,0.20,weatherlink.com 1.10,2013-04-18 20:21:00,
2013-04-18 15:36:00,50.7,37.0,29.95,NNW,332,18.0,23.0,59,0.00,,,0.20,weatherlink.com 1.10,2013-04-18 20:36:00,
2013-04-18 16:06:00,50.5,36.0,29.95,North,360,16.0,20.0,58,0.00,,,0.20,weatherlink.com 1.10,2013-04-18 21:06:00,
2013-04-18 16:21:00,50.3,36.0,29.96,NNW,345,16.0,24.0,58,0.00,,,0.20,weatherlink.com 1.10,2013-04-18 21:21:00,
2013-04-18 16:36:00,50.3,35.0,29.96,NW,321,13.0,27.0,56,0.00,,,0.20,weatherlink.com 1.10,2013-04-18 21:36:00,
2013-04-18 17:06:00,50.4,35.0,29.96,NW,319,16.0,23.0,56,0.00,,,0.20,weatherlink.com 1.10,2013-04-18 22:06:00,
2013-04-18 17:21:00,50.8,34.0,29.96,North,360,24.0,27.0,54,0.00,,,0.20,weatherlink.com 1.10,2013-04-18 22:21:00,
2013-04-18 17:36:00,50.2,34.0,29.98,NNW,344,22.0,26.0,55,0.00,,,0.20,weatherlink.com 1.10,2013-04-18 22:36:00,
2013-04-18 17:51:00,49.4,34.0,29.98,NW,320,23.0,25.0,55,0.00,,,0.20,weatherlink.com 1.10,2013-04-18 22:51:00,
2013-04-18 18:06:00,49.1,33.0,29.99,NW,312,12.0,25.0,55,0.00,,,0.20,weatherlink.com 1.10,2013-04-18 23:06:00,
2013-04-18 18:21:00,49.7,33.0,30.00,NNW,339,21.0,24.0,54,0.00,,,0.20,weatherlink.com 1.10,2013-04-18 23:21:00,
2013-04-18 18:36:00,49.1,33.0,30.00,North,349,14.0,21.0,55,0.00,,,0.20,weatherlink.com 1.10,2013-04-18 23:36:00,
2013-04-18 18:51:00,49.4,33.0,30.01,North,355,15.0,25.0,54,0.00,,,0.20,weatherlink.com 1.10,2013-04-18 23:51:00,
2013-04-18 19:06:00,48.8,33.0,30.02,North,350,15.0,24.0,55,0.00,,,0.20,weatherlink.com 1.10,2013-04-19 00:06:00,
2013-04-18 19:21:00,48.7,33.0,30.03,NNW,329,13.0,19.0,56,0.00,,,0.20,weatherlink.com 1.10,2013-04-19 00:21:00,
2013-04-18 19:36:00,48.3,33.0,30.03,North,355,12.0,19.0,55,0.00,,,0.20,weatherlink.com 1.10,2013-04-19 00:36:00,
2013-04-18 19:51:00,47.6,32.0,30.04,NNW,340,14.0,21.0,56,0.00,,,0.20,weatherlink.com 1.10,2013-04-19 00:51:00,
2013-04-18 20:06:00,46.8,33.0,30.05,North,360,11.0,16.0,58,0.00,,,0.20,weatherlink.com 1.10,2013-04-19 01:06:00,
2013-04-18 20:22:00,46.1,32.0,30.06,NW,324,10.0,16.0,59,0.00,,,0.20,weatherlink.com 1.10,2013-04-19 01:22:00,
2013-04-18 20:37:00,45.6,32.0,30.07,NNW,338,7.0,14.0,60,0.00,,,0.20,weatherlink.com 1.10,2013-04-19 01:37:00,
2013-04-18 20:52:00,45.1,32.0,30.08,NNW,346,6.0,13.0,61,0.00,,,0.20,weatherlink.com 1.10,2013-04-19 01:52:00,
2013-04-18 21:07:00,44.5,32.0,30.09,NNW,334,8.0,10.0,62,0.00,,,0.20,weatherlink.com 1.10,2013-04-19 02:07:00,
2013-04-18 21:22:00,44.3,32.0,30.10,NNW,329,6.0,10.0,63,0.00,,,0.20,weatherlink.com 1.10,2013-04-19 02:22:00,
2013-04-18 21:37:00,43.7,32.0,30.11,NW,321,4.0,9.0,64,0.00,,,0.20,weatherlink.com 1.10,2013-04-19 02:37:00,
2013-04-18 21:52:00,43.1,33.0,30.13,NNW,333,0.0,6.0,67,0.00,,,0.20,weatherlink.com 1.10,2013-04-19 02:52:00,
2013-04-18 22:22:00,41.7,33.0,30.14,NNW,336,0.0,0.0,71,0.00,,,0.20,weatherlink.com 1.10,2013-04-19 03:22:00,
2013-04-18 22:37:00,41.1,33.0,30.14,NNW,336,0.0,0.0,72,0.00,,,0.20,weatherlink.com 1.10,2013-04-19 03:37:00,
2013-04-18 22:52:00,40.9,33.0,30.14,NNW,335,0.0,0.0,72,0.00,,,0.20,weatherlink.com 1.10,2013-04-19 03:52:00,
2013-04-18 23:07:00,40.6,33.0,30.15,NNW,335,0.0,0.0,73,0.00,,,0.20,weatherlink.com 1.10,2013-04-19 04:07:00,
2013-04-18 23:22:00,40.1,33.0,30.15,NNW,335,0.0,0.0,75,0.00,,,0.20,weatherlink.com 1.10,2013-04-19 04:22:00,
2013-04-18 23:37:00,39.8,32.0,30.15,NNW,335,0.0,0.0,75,0.00,,,0.20,weatherlink.com 1.10,2013-04-19 04:37:00,
2013-04-18 23:52:00,39.8,32.0,30.15,NNW,335,0.0,0.0,75,0.00,,,0.20,weatherlink.com 1.10,2013-04-19 04:52:00,